TimeCST,TemperatureF,Dew PointF,Humidity,Sea Level PressureIn,VisibilityMPH,Wind Direction,Wind SpeedMPH,Gust SpeedMPH,PrecipitationIn,Events,Conditions,WindDirDegrees,DateUTC
12:53 AM,37.0,30.9,79,30.41,10.0,Calm,Calm,-,N/A,,Clear,0,2013-12-31 06:53:00
1:53 AM,37.0,32.0,82,30.42,10.0,Calm,Calm,-,N/A,,Clear,0,2013-12-31 07:53:00
2:53 AM,37.0,30.9,79,30.40,10.0,Calm,Calm,-,N/A,,Clear,0,2013-12-31 08:53:00
3:53 AM,36.0,30.9,82,30.42,10.0,Calm,Calm,-,N/A,,Clear,0,2013-12-31 09:53:00
4:53 AM,35.1,32.0,89,30.42,10.0,Calm,Calm,-,N/A,,Clear,0,2013-12-31 10:53:00
5:53 AM,36.0,32.0,86,30.41,10.0,Calm,Calm,-,N/A,,Clear,0,2013-12-31 11:53:00
6:53 AM,35.1,30.9,85,30.42,10.0,Calm,Calm,-,N/A,,Clear,0,2013-12-31 12:53:00
7:53 AM,35.1,32.0,89,30.43,7.0,Calm,Calm,-,N/A,,Clear,0,2013-12-31 13:53:00
8:53 AM,37.9,33.1,83,30.44,7.0,North,3.5,-,N/A,,Clear,360,2013-12-31 14:53:00
9:53 AM,41.0,33.1,73,30.47,10.0,North,5.8,-,N/A,,Clear,10,2013-12-31 15:53:00
10:53 AM,43.0,28.9,58,30.45,10.0,NE,8.1,-,N/A,,Clear,40,2013-12-31 16:53:00
11:53 AM,46.0,30.0,54,30.44,10.0,Variable,4.6,-,N/A,,Clear,0,2013-12-31 17:53:00
12:53 PM,46.0,30.9,56,30.40,10.0,NE,5.8,-,N/A,,Clear,50,2013-12-31 18:53:00
1:53 PM,46.9,30.9,54,30.36,10.0,East,4.6,-,N/A,,Clear,80,2013-12-31 19:53:00
2:53 PM,48.0,30.9,52,30.35,10.0,East,5.8,-,N/A,,Clear,90,2013-12-31 20:53:00
3:53 PM,48.0,32.0,54,30.35,10.0,East,4.6,-,N/A,,Clear,100,2013-12-31 21:53:00
4:53 PM,46.0,33.1,61,30.35,10.0,Calm,Calm,-,N/A,,Clear,0,2013-12-31 22:53:00
5:53 PM,43.0,35.1,74,30.35,10.0,Calm,Calm,-,N/A,,Clear,0,2013-12-31 23:53:00
6:53 PM,41.0,35.1,79,30.35,10.0,SE,3.5,-,N/A,,Clear,140,2014-01-01 00:53:00
7:53 PM,39.9,35.1,83,30.34,10.0,Calm,Calm,-,N/A,,Clear,0,2014-01-01 01:53:00
8:53 PM,39.0,34.0,82,30.35,8.0,Calm,Calm,-,N/A,,Clear,0,2014-01-01 02:53:00
9:53 PM,36.0,33.1,89,30.33,6.0,Calm,Calm,-,N/A,,Clear,0,2014-01-01 03:53:00
10:53 PM,36.0,32.0,86,30.31,10.0,Calm,Calm,-,N/A,,Clear,0,2014-01-01 04:53:00
11:53 PM,37.0,33.1,86,30.28,10.0,SE,3.5,-,N/A,,Clear,140,2014-01-01 05:53:00